Location: Walnut Street Observatory
(41.0583°N, 76.2295°W)
Time: 12:46:23
(UTC-04:00)

Daily predictions for brighter satellites

Satellite Brightness Start Highest point End
(mag) Time Altitude Azimuth Time Altitude Azimuth Time Altitude Azimuth
ATLAS 5 CENTAUR R/B 3.8 20:48:02 10° NNW 20:52:53 26° NE 20:58:05 10° E
Cosmos 1933 3.5 20:50:30 10° N 20:54:31 76° W 20:58:31 10° S
Cosmos 1939 Rocket 3.2 20:51:14 10° SSE 20:55:16 53° ENE 20:59:18 10° N
COSMOS 2487 3.9 20:52:15 10° NW 20:55:33 38° WSW 20:58:51 10° S
Meteor 2-10 Rocket 4.2 20:54:17 10° NNW 21:00:06 71° W 21:05:50 10° S
Cosmos 1937 Rocket 3.6 20:56:32 10° SSW 21:01:40 84° WNW 21:06:51 10° NNE
Okean 1-7 4.2 20:57:57 10° NNE 21:01:42 27° ENE 21:05:25 10° SE
H-2A ROCKET BODY 3.3 21:00:29 10° SSW 21:02:01 13° SSE 21:04:17 10° SE
Aureole 3 4.3 21:00:31 10° SE 21:02:38 17° E 21:04:43 10° NE
GPS 2-04 Rocket1 3.3 21:00:37 10° WSW 21:04:05 35° S 21:07:24 10° ESE
H-2A R/B 3.9 21:02:44 10° E 21:05:54 16° ENE 21:09:02 10° NNE
ARGOS 4.4 21:06:30 10° ESE 21:10:49 26° ENE 21:15:10 10° N
Meteor 1-29 3.5 21:10:31 10° NNE 21:13:48 39° E 21:17:05 10° S
Cosmos 2150 Rocket 4.5 21:08:54 10° SSW 21:14:15 69° WNW 21:19:33 10° NNE
Cosmos 1703 Rocket 3.8 21:10:06 10° N 21:14:27 53° E 21:18:43 10° SSE
Meteor 2-3 Rocket 3.8 21:13:35 10° S 21:19:19 88° E 21:25:01 10° N
Cosmos 2082 Rocket 4.4 21:16:23 10° NW 21:20:45 23° W 21:25:06 10° SSW
SJ-11-01 4.4 21:16:07 10° SSE 21:20:51 83° WSW 21:25:35 10° NNW
Cosmos 1408 3.6 21:18:08 10° SSE 21:21:20 28° E 21:24:34 10° NNE
Milstar 3 4.4 21:12:46 10° SW 21:23:26 30° S 21:29:45 12° ESE
Cosmos 1782 3.5 21:22:26 10° N 21:26:11 37° ENE 21:29:11 14° SE
ERS-1 Rocket 3.3 21:23:31 11° SE 21:28:14 51° ENE 21:33:07 10° N
Cosmos 2344 4.0 21:24:30 10° S 21:31:24 38° ESE 21:38:44 10° NE
Cosmos 1825 2.8 21:28:20 11° SSE 21:31:33 35° E 21:35:02 10° NNE
Cosmos 1869 Rocket 3.5 21:28:47 10° S 21:33:04 68° E 21:37:25 10° NNE
BREEZE-M DEB (TANK) 3.8 21:32:15 10° NW 21:35:03 40° NNE 21:43:54 10° E
Helios 1B rocket 2.5 21:33:04 10° N 21:37:12 79° WNW 21:41:16 10° SSW
Cosmos 2084 3.2 21:34:35 10° NW 21:38:25 87° SW 21:41:16 18° SSE
USA 215 3.5 21:35:07 13° ESE 21:40:55 62° NE 21:47:24 10° NW
MetOp-A 4.2 21:40:51 15° SSE 21:45:18 63° ENE 21:50:36 10° N
Cosmos 1862 4.2 21:43:53 20° SE 21:45:47 30° E 21:49:17 10° NNE
Lacrosse 4 Rocket 2.5 21:42:44 10° NNW 21:46:54 36° NE 21:49:28 20° ESE
Cosmos 2221 Rocket 3.6 21:44:34 10° N 21:49:03 90° SE 21:52:52 14° S
ISS -2.7 21:49:24 10° WSW 21:52:32 46° NNW 21:55:42 10° NE
Cosmos 1943 Rocket 2.1 21:47:24 10° S 21:52:56 67° ESE 21:58:28 10° NNE
Terra 3.5 21:54:15 15° E 21:56:15 19° ENE 21:59:33 10° NNE
Cosmos 1634 Rocket 4.5 21:53:05 10° NNW 21:59:16 61° W 22:05:28 10° S
deb Kosmos-1763 4.1 21:56:16 10° NNW 22:00:01 66° ENE 22:01:44 30° SE
Cosmos 2263 4.3 21:56:38 10° SSW 22:02:25 83° WNW 22:08:12 10° NNE
Tiangong 2 2.6 22:00:03 10° W 22:02:44 24° SSW 22:03:23 22° S
NOAA 11 4.3 21:58:58 14° S 22:03:42 76° WSW 22:09:13 10° NNW
SPOT 1/Viking Rocket 4.0 22:00:53 24° SE 22:03:44 47° ENE 22:08:43 10° N
CENTAUR R/B 2.5 21:59:25 10° SSW 22:05:24 89° SE 22:12:16 10° NE
Cosmos 372 Rocket 3.9 22:00:48 10° SSW 22:05:55 83° ESE 22:11:03 10° NNE
Cosmos 1340 2.6 22:03:18 10° N 22:07:06 73° E 22:08:45 32° SSE
BREEZE M DEB (TANK) 4.1 21:55:51 10° SW 22:09:41 90° N 22:13:34 10° ENE
Nadezhda 4 Rocket 4.2 22:06:49 21° SSE 22:10:52 51° E 22:16:48 10° NNE
COSMOS 2455 3.9 22:05:15 10° SW 22:11:03 48° NW 22:16:53 10° NNE
SPOT 5 3.1 22:08:10 24° SSE 22:11:30 74° ENE 22:16:48 10° N
Cosmos 1269 Rocket 4.0 22:06:36 10° NNW 22:11:56 85° ENE 22:14:56 26° SSE
Cosmos 2369 Rocket 3.2 22:09:14 10° SW 22:14:40 48° WNW 22:20:11 10° NNE
Cosmos 1125 Rocket 3.8 22:11:16 10° SSW 22:16:30 67° WNW 22:21:42 10° NNE
H-2A R/B 3.8 22:16:52 16° ENE 22:17:38 16° ENE 22:20:14 10° NNE
YAOGAN 11 4.1 22:16:37 30° SSE 22:18:52 82° ENE 22:23:24 10° N
Cosmos 1833 4.2 22:15:20 10° NNW 22:21:09 76° ENE 22:24:01 31° SE
Cosmos 1606 3.5 22:17:56 10° NNW 22:21:34 46° W 22:23:47 21° SSW
Lacrosse 5 rocket 2.9 22:21:51 10° WSW 22:25:06 32° NW 22:28:27 10° NNE
Okean 3 4.5 22:23:09 10° NNE 22:26:51 29° ENE 22:27:17 29° E
IGS 5A 4.3 22:29:14 31° E 22:29:54 33° ENE 22:33:38 10° N
Cosmos 2297 Rocket 4.5 22:30:54 10° NNE 22:33:07 12° NE 22:35:19 10° ENE
TRAILBLAZER 4.5 22:32:45 10° SSW 22:37:16 88° ESE 22:41:51 10° NNE
ATLAS 5 CENTAUR R/B 2.5 22:32:06 10° NW 22:38:08 73° WSW 22:41:08 34° SSE
Cosmos 1908 Rocket 4.0 22:38:31 41° ESE 22:38:48 41° E 22:43:00 10° NNE
Cosmos 1867 4.0 22:34:48 10° NNW 22:40:08 51° NE 22:42:05 35° ESE
Meteor 1-27 Rocket 3.9 22:34:32 10° NNW 22:40:17 71° W 22:43:17 28° S
GPS 2-04 Rocket1 4.3 22:40:19 10° WSW 22:42:01 20° SW 22:42:01 20° SW
H-2A R/B 2.2 22:42:09 32° S 22:44:42 73° WSW 22:50:03 10° NNW
Cosmos 494 Rocket 4.0 22:42:51 10° NNW 22:48:03 65° ENE 22:49:23 47° SE
Intercosmos 25 Rocket 4.2 22:41:40 10° N 22:49:00 84° W 22:50:46 41° S
ARGOS 4.1 22:47:36 21° SSW 22:50:49 42° W 22:55:54 10° NNW
Cosmos 1656 Rocket 3.5 22:48:00 22° SSW 22:51:35 89° ESE 22:57:08 10° NNE
deb Chang Zheng 4 4.4 22:56:33 10° NNE 23:00:04 37° ENE 23:00:04 37° ENE
Cosmos 1733 Rocket 4.1 23:01:47 24° SW 23:03:52 41° WNW 23:08:00 10° N
CZ-4B R/B 4.2 23:01:12 10° NNE 23:05:09 34° E 23:05:09 34° E
Cosmos 1782 Rocket 4.1 23:06:36 45° ENE 23:06:36 45° ENE 23:10:22 10° NNE
Meteor 1-25 Rocket 4.5 23:07:14 48° ESE 23:08:03 52° E 23:13:41 10° NNE
Sich 1 Rocket 3.4 23:12:21 80° SSW 23:12:37 89° WNW 23:17:04 10° N
Cosmos 1655 Rocket 4.2 23:13:17 47° ESE 23:14:19 52° E 23:20:20 10° NNE
Landsat 7 4.5 23:17:28 41° SW 23:18:28 47° W 23:23:05 10° NNW
Cosmos 2227 Rocket 3.3 23:18:25 10° N 23:23:29 32° ENE 23:24:44 29° E
Meteor 1-14 Rocket 4.2 23:22:21 52° S 23:23:53 89° WNW 23:29:45 10° N
CZ-2C R/B 4.1 23:19:58 10° NE 23:22:59 22° ENE 23:22:59 22° ENE
USA 215 3.9 23:22:28 34° SSW 23:24:05 39° SW 23:30:10 10° WNW
Lacrosse 4 Rocket 3.2 23:21:52 10° NW 23:25:25 23° WSW 23:25:48 23° WSW
Cosmos 1975 Rocket 3.2 23:23:56 10° N 23:28:04 68° NE 23:28:04 68° NE
Cosmos 2219 3.1 23:23:45 10° NNW 23:29:31 84° WSW 23:30:23 66° S
ISS -0.6 23:27:38 10° NW 23:29:38 15° NNW 23:31:38 10° NNE
Cosmos 2026 Rocket 3.9 23:28:05 54° S 23:29:39 89° E 23:35:57 10° N
SL-19 R/B 4.5 23:26:10 10° NNE 23:32:15 82° WNW 23:34:17 46° SSW
Terra 2.4 23:33:08 46° WSW 23:33:37 48° W 23:38:14 10° NNW
Cosmos 1812 3.4 23:30:15 10° N 23:33:20 54° NNW 23:33:20 54° NNW
ATLAS CENTAUR R/B 2.1 23:36:09 47° N 23:36:09 47° N 23:39:03 10° NNE
CARTOSAT-1 4.5 23:36:19 39° W 23:36:24 39° W 23:40:29 10° NNW
BREEZE-M DEB (TANK) 3.2 23:36:02 63° S 23:36:44 72° SE 23:50:01 10° ENE
Cosmos 2251 Rocket 3.9 23:35:26 10° NNW 23:40:30 52° WSW 23:40:56 50° WSW
Cosmos 1378 Rocket 4.4 23:37:47 10° NNW 23:41:59 42° W 23:42:02 42° W
Gbstr 26 Del rocket 4.1 23:40:00 10° NW 23:43:57 35° NNE 23:44:06 35° NNE
Cosmos 1417 Rocket 4.4 23:38:52 10° N 23:45:10 87° E 23:46:11 65° SSE
SME Rocket 4.4 23:43:24 50° SSW 23:45:15 71° WSW 23:54:36 10° NNW
Cosmos 2369 4.5 23:46:56 37° E 23:46:56 37° E 23:51:13 10° NE
ARGOS Delta rocket 3.8 23:42:14 10° N 23:46:12 69° N 23:46:12 69° N
Cosmos 1428 Rocket 4.4 23:46:28 64° S 23:47:33 87° E 23:53:54 10° N
Meteor 2-11 Rocket 4.3 23:41:32 10° N 23:47:42 86° E 23:48:29 70° SSE
CZ-4C R/B 4.0 23:50:08 58° N 23:50:08 58° N 23:53:32 10° N
S3M 3.8 23:46:09 10° N 23:52:18 77° E 23:52:56 69° SE
H-2A R/B 3.1 23:53:59 37° WNW 23:53:59 37° WNW 23:57:13 10° NNW
GEOS 3 Rocket 4.2 23:54:47 42° WSW 23:54:47 42° WSW 23:59:32 10° NW
Cosmos 405 Rocket 4.2 23:51:31 10° NNW 23:53:54 34° NW 23:53:54 34° NW
